Location: Fishcreek Rd Observing Site
(41.1865°N, 81.4271°W)
Time: 03:00:00
(UTC-05:00)

ISS - Visible Passes

Search period start: 21 February 2019 00:00
Search period end: 03 March 2019 00:00
Orbit: 403 x 411 km, 51.6° (Epoch: 21 February)

Date Brightness Start Highest point End Pass type
(mag) Time Alt. Az. Time Alt. Az. Time Alt. Az.
22 Feb -0.9 05:59:19 10° S 06:01:22 16° SE 06:03:26 10° E visible
24 Feb -2.5 05:52:00 12° SSW 05:54:46 39° SE 05:57:51 10° ENE visible
25 Feb -1.6 05:03:14 21° SE 05:03:28 21° SE 05:06:00 10° E visible
25 Feb -3.4 06:36:39 10° WSW 06:39:49 45° NNW 06:42:58 10° NE visible
26 Feb -3.9 05:47:00 34° WSW 05:48:18 81° NW 05:51:35 10° NE visible
27 Feb -2.2 04:57:53 35° E 04:57:53 35° E 05:00:03 10° ENE visible
27 Feb -2.4 06:30:47 10° W 06:33:34 25° NNW 06:36:20 10° NE visible
28 Feb -3.1 05:41:22 33° NW 05:41:56 36° NNW 05:45:00 10° NE visible
01 Mar -1.8 04:52:00 26° NE 04:52:00 26° NE 04:53:36 10° NE visible
01 Mar -1.8 06:25:09 10° WNW 06:27:23 17° NNW 06:29:38 10° NNE visible
02 Mar -2.2 05:35:17 21° NNW 05:35:38 22° NNW 05:38:16 10° NNE visible
